Atwater, CA

10:06 AM PST on December 03, 2016 (GMT -0800)
Castle

Weather History for KMER - March, 2014

Change the Weather History Date:

Wednesday, March 26, 2014

  Actual Average (KMCE) Record (KMCE)
Temperature  
Mean Temperature 53 °F 55 °F  
Max Temperature 60 °F 67 °F 85 °F (2015)
Min Temperature 46 °F 42 °F 37 °F (2006)
Degree Days  
Heating Degree Days 12    
Month to date heating degree days  
Since 1 July heating degree days  
Cooling Degree Days 0    
Month to date cooling degree days  
Year to date cooling degree days  
Growing Degree Days 3 (Base 50)    
Moisture  
Dew Point 52 °F    
Average Humidity 97    
Maximum Humidity 100    
Minimum Humidity 72    
Precipitation  
Precipitation 0.00 in 0.06 in 0.60 in (2011)
Month to date precipitation 1.80  
Year to date precipitation 6.75  
Snow  
Snow 0.00 in - - ()
Month to date snowfall  
Since 1 July snowfall  
Snow Depth -    
Sea Level Pressure  
Sea Level Pressure 29.90 in    
Wind  
Wind Speed 3 mph (South)    
Max Wind Speed 16 mph    
Max Gust Speed 23 mph    
Visibility 9 miles    
Events Rain    
T = Trace of Precipitation, MM = Missing Value Source: NWS Daily Summary

Daily Weather History Graph

Daily Weather History Graph

Search for Another Location

Airport or City:

Trip Planner

Search our weather history database for the weather conditions in past years. The results will help you decide how hot, cold, wet, or windy it might be!

Date:

Astronomy

Mar. 26, 2014 Rise Set
Actual Time 6:56 AM PDT 7:19 PM PDT
Civil Twilight 6:30 AM PDT 7:45 PM PDT
Nautical Twilight 5:59 AM PDT 8:16 PM PDT
Astronomical Twilight 5:28 AM PDT 8:47 PM PDT
Moon 4:03 AM PDT (3/26) 3:08 PM PDT (3/26)
Length of Visible Light 13h 15m
Length of Day
12h 23m
Waning Crescent, 21% of the Moon is Illuminated
Mar 26
Waning Crescent
Mar 30
New
Apr 7
First Quarter
Apr 15
Full
Apr 22
Last Quarter

Hourly Weather History & Observations

Time (PDT) Temp. Dew Point Humidity Pressure Visibility Wind Dir Wind Speed Gust Speed Precip Events Conditions
12:15 AM 55.4 °F 55.4 °F 100% 29.87 in 10.0 mi NNE 4.6 mph - N/A   Overcast
12:35 AM 53.6 °F 53.6 °F 100% 29.87 in 10.0 mi Calm Calm - N/A   Overcast
12:55 AM 53.6 °F 53.6 °F 100% 29.86 in 10.0 mi Calm Calm - N/A   Overcast
1:15 AM 53.6 °F 53.6 °F 100% 29.86 in 10.0 mi Calm Calm - N/A   Mostly Cloudy
1:35 AM 53.6 °F 53.6 °F 100% 29.86 in 10.0 mi Calm Calm - N/A   Mostly Cloudy
1:55 AM 53.6 °F 53.6 °F 100% 29.86 in 10.0 mi Calm Calm - N/A   Mostly Cloudy
2:15 AM 53.6 °F 53.6 °F 100% 29.86 in 10.0 mi Calm Calm - N/A   Mostly Cloudy
2:35 AM 53.6 °F 53.6 °F 100% 29.86 in 10.0 mi Calm Calm - N/A   Mostly Cloudy
2:55 AM 51.8 °F 51.8 °F 100% 29.85 in 10.0 mi Calm Calm - N/A   Scattered Clouds
3:15 AM 51.8 °F 51.8 °F 100% 29.85 in 10.0 mi Calm Calm - N/A   Scattered Clouds
3:35 AM 53.6 °F 53.6 °F 100% 29.85 in 10.0 mi Calm Calm - N/A   Mostly Cloudy
3:55 AM 53.6 °F 53.6 °F 100% 29.85 in 10.0 mi Calm Calm - N/A   Mostly Cloudy
4:15 AM 53.6 °F 53.6 °F 100% 29.85 in 10.0 mi Calm Calm - N/A   Overcast
4:35 AM 53.6 °F 53.6 °F 100% 29.85 in 5.0 mi Calm Calm - N/A   Overcast
4:55 AM 53.6 °F 53.6 °F 100% 29.85 in 8.0 mi Calm Calm - N/A   Overcast
5:15 AM 53.6 °F 53.6 °F 100% 29.85 in 8.0 mi Calm Calm - N/A   Mostly Cloudy
5:35 AM 51.8 °F 51.8 °F 100% 29.85 in 8.0 mi Calm Calm - N/A   Scattered Clouds
5:55 AM 51.8 °F 51.8 °F 100% 29.85 in 10.0 mi Calm Calm - N/A   Partly Cloudy
6:45 AM 50.0 °F 50.0 °F 100% 29.86 in 10.0 mi Calm Calm - N/A   Mostly Cloudy
7:45 AM 50.0 °F 50.0 °F 100% 29.87 in 10.0 mi Calm Calm - N/A   Mostly Cloudy
8:45 AM 53.6 °F 53.6 °F 100% 29.88 in 7.0 mi Calm Calm - N/A   Mostly Cloudy
9:45 AM 57.2 °F 55.4 °F 94% 29.89 in 10.0 mi SSW 5.8 mph - N/A   Mostly Cloudy
10:45 AM 55.4 °F 55.4 °F 100% 29.91 in 5.0 mi SW 5.8 mph - N/A Rain Light Rain
11:20 AM 53.6 °F 53.6 °F 100% 29.91 in 5.0 mi SSW 11.5 mph - N/A Rain Light Rain
11:45 AM 53.6 °F 53.6 °F 100% 29.91 in 5.0 mi South 11.5 mph - N/A Rain Light Rain
12:45 PM 57.2 °F 51.8 °F 82% 29.90 in 7.0 mi South 11.5 mph - N/A Rain Light Rain
1:45 PM 60.8 °F 51.8 °F 72% 29.89 in 7.0 mi South 11.5 mph - N/A   Overcast
2:45 PM 60.8 °F 51.8 °F 72% 29.88 in 7.0 mi South 15.0 mph - N/A Rain Light Rain
3:45 PM 60.8 °F 53.6 °F 77% 29.87 in 7.0 mi SSE 13.8 mph - N/A Rain Light Rain
4:45 PM 55.4 °F 53.6 °F 94% 29.86 in 7.0 mi South 16.1 mph 23.0 mph N/A   Overcast
5:45 PM 53.6 °F 48.2 °F 82% 29.89 in 10.0 mi Variable 4.6 mph - N/A   Overcast
6:45 PM 53.6 °F 53.6 °F 100% 29.90 in 10.0 mi Variable 4.6 mph - N/A   Overcast
7:45 PM 51.8 °F 51.8 °F 100% 29.91 in 10.0 mi Variable 4.6 mph - N/A   Mostly Cloudy
8:15 PM 50.0 °F 50.0 °F 100% 29.92 in 10.0 mi SSE 6.9 mph - N/A   Mostly Cloudy
8:35 PM 51.8 °F 51.8 °F 100% 29.93 in 10.0 mi SSE 6.9 mph - N/A   Mostly Cloudy
8:45 PM 51.8 °F 51.8 °F 100% 29.94 in 10.0 mi SE 6.9 mph - N/A   Mostly Cloudy
8:55 PM 51.8 °F 51.8 °F 100% 29.94 in 10.0 mi South 6.9 mph - N/A   Overcast
9:15 PM 50.0 °F 50.0 °F 100% 29.95 in 10.0 mi South 4.6 mph - N/A   Scattered Clouds
9:35 PM 48.2 °F 48.2 °F 100% 29.96 in 10.0 mi SSE 5.8 mph - N/A   Clear
9:55 PM 48.2 °F 48.2 °F 100% 29.96 in 10.0 mi South 4.6 mph - N/A   Clear
10:15 PM 48.2 °F 48.2 °F 100% 29.96 in 10.0 mi Calm Calm - N/A   Clear
10:35 PM 46.4 °F 46.4 °F 100% 29.97 in 10.0 mi Calm Calm - N/A   Clear
10:55 PM 46.4 °F 46.4 °F 100% 29.97 in 10.0 mi Calm Calm - N/A   Partly Cloudy
11:15 PM 46.4 °F 46.4 °F 100% 29.98 in 10.0 mi Calm Calm - N/A   Mostly Cloudy
11:35 PM 48.2 °F 48.2 °F 100% 29.99 in 10.0 mi Calm Calm - N/A   Scattered Clouds
11:55 PM 48.2 °F 48.2 °F 100% 29.99 in 10.0 mi Calm Calm - N/A   Partly Cloudy